カタログに戻る

ATLAS 28E DEB

運用中PO
NORAD 20565·DEBRIS·🇺🇸 United States

打ち上げ Apr 11, 1990 から Vandenberg Space Force Base

Loading…

次のパス (今後24時間)

TLE

最新Source: Space-Track

元期: Sep 14, 2026, 05:26 UTC

1 20565U 90031F   26257.22666231  .00001216  00000-0  12279-3 0  9995
2 20565  89.9138 243.9256 0047579 261.8002  97.7829 14.89679721396879

AllMySatでATLAS 28E DEBをリアルタイム追跡

Download on the App Store